TimeCST,TemperatureF,Dew PointF,Humidity,Sea Level PressureIn,VisibilityMPH,Wind Direction,Wind SpeedMPH,Gust SpeedMPH,PrecipitationIn,Events,Conditions,WindDirDegrees,DateUTC
12:56 AM,42.1,32.0,67,30.10,10.0,NNW,3.5,-,N/A,,Clear,340,2013-03-01 06:56:00
1:56 AM,39.2,32.0,75,30.10,10.0,WNW,4.6,-,N/A,,Clear,300,2013-03-01 07:56:00
2:56 AM,37.0,32.0,82,30.08,10.0,NNW,3.5,-,N/A,,Clear,340,2013-03-01 08:56:00
3:56 AM,37.9,32.0,79,30.09,10.0,NNW,3.5,-,N/A,,Clear,330,2013-03-01 09:56:00
4:56 AM,39.0,32.0,76,30.09,10.0,NNW,3.5,-,N/A,,Clear,340,2013-03-01 10:56:00
5:56 AM,37.9,33.1,83,30.12,10.0,Calm,Calm,-,N/A,,Overcast,0,2013-03-01 11:56:00
6:56 AM,37.9,34.0,86,30.12,10.0,Calm,Calm,-,N/A,,Mostly Cloudy,0,2013-03-01 12:56:00
7:56 AM,42.1,33.1,70,30.13,9.0,North,4.6,-,N/A,,Mostly Cloudy,360,2013-03-01 13:56:00
8:56 AM,46.0,30.0,54,30.13,10.0,Calm,Calm,-,N/A,,Mostly Cloudy,0,2013-03-01 14:56:00
9:56 AM,50.0,30.0,46,30.12,10.0,Calm,Calm,-,N/A,,Mostly Cloudy,0,2013-03-01 15:56:00
10:56 AM,53.1,30.0,41,30.11,10.0,NW,6.9,-,N/A,,Mostly Cloudy,310,2013-03-01 16:56:00
11:56 AM,54.0,30.0,40,30.08,9.0,Variable,6.9,-,N/A,,Mostly Cloudy,0,2013-03-01 17:56:00
12:56 PM,55.9,28.0,34,30.06,10.0,WNW,9.2,19.6,N/A,,Mostly Cloudy,290,2013-03-01 18:56:00
1:56 PM,60.1,28.0,30,30.03,10.0,NNW,10.4,19.6,N/A,,Mostly Cloudy,330,2013-03-01 19:56:00
2:56 PM,55.0,27.0,34,30.02,10.0,WNW,9.2,-,N/A,,Scattered Clouds,300,2013-03-01 20:56:00
3:56 PM,55.9,28.0,34,30.02,9.0,NNW,10.4,-,N/A,,Mostly Cloudy,330,2013-03-01 21:56:00
4:56 PM,55.9,27.0,33,30.02,10.0,NW,10.4,-,N/A,,Scattered Clouds,310,2013-03-01 22:56:00
5:56 PM,51.1,28.0,41,30.04,10.0,NW,4.6,-,N/A,,Partly Cloudy,310,2013-03-01 23:56:00
6:56 PM,48.0,28.9,48,30.07,10.0,NW,5.8,-,N/A,,Partly Cloudy,320,2013-03-02 00:56:00
7:56 PM,46.9,28.9,50,30.10,10.0,NW,8.1,16.1,N/A,,Clear,320,2013-03-02 01:56:00
8:56 PM,45.0,28.9,53,30.13,10.0,NNW,17.3,24.2,N/A,,Partly Cloudy,340,2013-03-02 02:56:00
9:56 PM,42.1,28.0,58,30.16,10.0,NNW,10.4,-,N/A,,Partly Cloudy,340,2013-03-02 03:56:00
10:56 PM,39.0,28.0,65,30.16,10.0,NNW,8.1,-,N/A,,Partly Cloudy,340,2013-03-02 04:56:00
11:56 PM,37.0,27.0,67,30.16,10.0,NW,3.5,-,N/A,,Clear,320,2013-03-02 05:56:00